Tracking 18945 objects as of 19-Jan-2018
HD Live streaming from Space Station
objects crossing your sky now

FENGYUN 1C DEB

Track FENGYUN 1C DEB now!
10-day predictions


NORAD ID: 30196
Int'l Code: 1999-025VD
Perigee: 753.0 km
Apogee: 878.2 km
Inclination: 98.7 °
Period: 101.1 minutes
Semi major axis: 7186 km
RCS: 0.05 m2 (small)
Launch date: May 10, 1999
Source: People's Republic of China (PRC)
Launch site: Taiyaun Space Center, China (TSC)

Note: This is SATELLITE DEBRIS
aabbcc
Your satellite tracking list
Your tracking list is empty




NASA's NSSDC Master Catalog

Two Line Element Set (TLE):
1 30196U 99025VD  18018.71373514 -.00000001 +00000-0 +17434-4 0  9998
2 30196 098.6994 110.0266 0087111 177.1470 337.1458 14.25020570572693
Source of the keplerian elements: AFSPC